Regional Weather Roundup
Issued by NWS Kansas City/Pleasant Hill, MO

Home | Current Version | Previous Version | Text Only | Print | Product List | Glossary On
Versions: 1 2 3 4 5 6 7 8 9 10 11 12 13 14 15 16 17 18 19 20 21 22 23 24 25 26 27 28 29 30 31 32 33 34 35 36 37 38 39 40 41 42 43 44 45 46 47 48 49 50
000
ASUS43 KEAX 102010
RWREAX

WEATHER ROUNDUP FOR EASTERN KANSAS AND NORTHWEST MISSOURI
NATIONAL WEATHER SERVICE KANSAS CITY/PLEASANT HILL MO
200 PM CST WED FEB 10 2016

KSZ040-057-103>105-MOZ028-029-037-043-102100-
...KANSAS CITY METROPOLITAN AREA...

CITY           SKY/WX    TMP DP  RH WIND       PRES   REMARKS
K.C. INTL      SUNNY     45  20  36 S13       29.92F
K.C. DOWNTOWN  SUNNY     46  18  32 S14       29.94F
LEES SUMMIT    SUNNY     43  18  36 S15       29.95F
OLATHE - IXD   SUNNY     45  20  36 S16       29.93F
OLATHE - OJC   SUNNY     44  18  35 SW13G21   29.93F
LAWRENCE       SUNNY     48  21  34 SW13      29.91F

$$

MOZ001>008-011>017-020>025-030>033-038>040-044>046-053-054-102100-
...NORTHERN AND CENTRAL MISSOURI...

CITY           SKY/WX    TMP DP  RH WIND       PRES   REMARKS
ST. JOSEPH     SUNNY     44  19  36 S10       29.92F
MOSBY          CLEAR     41  18  38 S8G17     29.95F
WARRENSBURG    SUNNY     39  18  41 S9        29.99F WCI  33
WHITEMAN AFB   MOSUNNY   41  17  37 SW15      29.98F WCI  33
CLINTON          N/A     43  19  39 S13G21    30.00F
SEDALIA        SUNNY     40  14  34 S14       30.01F WCI  32
WARSAW         NOT AVBL
CHILLICOTHE      N/A     33  21  61 SE8       30.00F WCI  26
KIRKSVILLE     CLOUDY    21  16  81 SE8       30.04F WCI  11

$$

MOZ041-047>049-056>058-063>065-088>090-097-102100-
...EASTERN AND SOUTHERN MISSOURI...

CITY           SKY/WX    TMP DP  RH WIND       PRES   REMARKS
ST. LOUIS INTL LGT SNOW  22  15  75 SW5       30.12F VSB 1   WCI  16
SPIRIT OF STL  LGT SNOW  21  16  79 SW5       30.12F WCI  15
COLUMBIA       CLOUDY    25  20  81 S10       30.05F WCI  15
JEFFERSON CITY CLOUDY    26  19  74 SE7       30.09F WCI  18
ROLLA          MOSUNNY   25  19  78 SE7       30.04F WCI  17
OSAGE BEACH    MOSUNNY   37  14  38 SE8       30.03F WCI  31
SPRINGFIELD    SUNNY     45  16  31 SW16      29.99F
BRANSON        MOSUNNY   46  18  31 SW8       30.04F
JOPLIN         SUNNY     47  19  33 SW14      30.02F
WEST PLAINS    SUNNY     38  12  34 S9G16     30.05F WCI  31

$$

IAZ060-094-KSZ022-034>040-054-083-096-NEZ052-066-093-102100-
...KANSAS...SOUTHEAST NEBRASKA AND IOWA...

CITY           SKY/WX    TMP DP  RH WIND       PRES   REMARKS
TOPEKA         SUNNY     52  23  32 SW9       29.89F
MANHATTAN      SUNNY     57  28  33 W10       29.89F
EMPORIA        SUNNY     57  24  28 SW15      29.90F
CHANUTE        SUNNY     51  22  31 S14       29.96F
WICHITA        SUNNY     61  30  31 SW13      29.94F
OMAHA          MOSUNNY   35  22  58 SE6       29.91F WCI  30
LINCOLN        SUNNY     40  28  62 NE6       29.90S
FALLS CITY     SUNNY     49  26  41 W5        29.88F
LAMONI         CLOUDY    26  20  77 SE7       29.97F WCI  18
DES MOINES     FLURRIES  19  12  74 E8        30.03F WCI   9

$$




USA.gov is the U.S. government's official web portal to all federal, state and local government web resources and services.